Location: *
(51.4660°N, 0.3360°W)
Time: 06:37:12
(UTC+00:00)

Cosmos 1975 - Pass Details

Date: 19 September 2019
Orbit: 543 x 561 km, 82.5° (Epoch: 16 October)

Event Time Altitude Azimuth Distance (km) Brightness Sun altitude
Rises 19:03:53 0° 208° (SSW) 2,699 6.5 -9.5°
Reaches altitude 10° 19:06:08 10° 216° (SW) 1,813 5.7 -9.9°
Maximum altitude 19:09:53 39° 287° (WNW) 830 4.4 -10.4°
Drops below altitude 10° 19:13:42 10° 357° (N) 1,834 5.7 -11.0°
Sets 19:15:59 0° 6° (N) 2,736 6.5 -11.3°
